This demonstration page uses our WeatherBlox Daily Observations layout. Learn more.

Left ArrowRight Arrow

39.01783, -85.05884

Hourly Observations for April 10, 2020

Temp ( °F °C ) Dew Point ( °F °C ) Humidity (%) Winds ( mph kmh ) Pressure ( in mb ) Visibility ( mi km ) Precip ( " mm )
12:52 am 00:52 Mostly Cloudy 38 3.3 30 -1.1 73 73 W 18 30 29.84 1011 10 16 N/A
1:52 am 01:52 Mostly Clear 36 2.2 29 -1.7 76 76 WNW 15 24 29.86 1011 10 16 N/A
2:52 am 02:52 Mostly Clear 35 1.7 29 -1.7 78 78 W 14 22 29.88 1012 10 16 N/A
3:52 am 03:52 Clear 35 1.7 29 -1.7 78 78 WNW 13 20 29.90 1013 10 16 N/A
4:52 am 04:52 Clear 34 1.1 27 -2.8 76 76 WNW 12 19 29.91 1013 10 16 N/A
5:52 am 05:52 Clear 34 1.1 27 -2.8 76 76 WNW 14 22 29.94 1014 10 16 N/A
6:52 am 06:52 Clear 33 0.6 26 -3.3 75 75 W 12 19 29.96 1015 10 16 N/A
7:52 am 07:52 Mostly Sunny 34 1.1 27 -2.8 76 76 WNW 14 22 29.99 1016 10 16 N/A
8:52 am 08:52 Mostly Sunny 37 2.8 27 -2.8 67 67 NW 14 22 30.01 1016 10 16 N/A
9:52 am 09:52 Partly Cloudy 39 3.9 27 -2.8 62 62 WNW 13 20 30.03 1017 10 16 N/A
10:52 am 10:52 Partly Cloudy 43 6.1 28 -2.2 56 56 WNW 13 20 30.06 1018 10 16 N/A
11:52 am 11:52 Partly Cloudy 44 6.7 25 -3.9 47 47 NW 16 26 30.07 1018 10 16 N/A
12:52 pm 12:52 Mostly Cloudy 46 7.8 25 -3.9 44 44 W 18 30 30.05 1018 10 16 N/A
1:52 pm 13:52 Mostly Cloudy 45 7.2 25 -3.9 46 46 W 16 26 30.05 1018 10 16 N/A
2:52 pm 14:52 Mostly Cloudy 46 7.8 24 -4.4 42 42 WNW 14 22 30.04 1017 10 16 N/A
3:52 pm 15:52 Mostly Cloudy 48 8.9 24 -4.4 39 39 WNW 15 24 30.02 1017 10 16 N/A
4:52 pm 16:52 Partly Cloudy 48 8.9 24 -4.4 39 39 WNW 12 19 30.02 1017 10 16 N/A
5:52 pm 17:52 Mostly Sunny 48 8.9 23 -5 37 37 NW 16 26 30.01 1016 10 16 N/A
6:52 pm 18:52 Mostly Sunny 49 9.4 23 -5 36 36 WNW 14 22 30.01 1016 10 16 N/A
7:52 pm 19:52 Mostly Sunny 46 7.8 24 -4.4 42 42 WNW 9 15 30.00 1016 10 16 N/A
8:52 pm 20:52 Clear 43 6.1 25 -3.9 49 49 W 3 6 30.01 1016 10 16 N/A
9:52 pm 21:52 Mostly Clear 43 6.1 23 -5 45 45 N N/A 30.02 1017 10 16 N/A
10:52 pm 22:52 Partly Cloudy 41 5 24 -4.4 51 51 N N/A 30.01 1016 10 16 N/A
11:52 pm 23:52 Partly Cloudy 37 2.8 26 -3.3 65 65 SW 6 9 30.01 1016 10 16 N/A

Powered by AerisWeather